User: anonymous   Login
Location: Sperry Observatory
(40.6664°N, 74.3236°W)
Time: 16:51:44
(UTC-05:00)
Language:

UOSAT-12 - Orbit

View from above orbital plane
View from above orbital plane
View from above satellite
View from above satellite

Ground track
Ground track

The orbit data is extracted from the following two-line orbital elements,

1 25693U 99021A   14331.53766123  .00000851  00000-0  12861-3 0  6746
2 25693 064.5566 119.3416 0049590 267.1386 161.9657 14.80165670842090
Epoch (UTC): 27 November 2014 12:54:13
Eccentricity: 0.0049590
inclination: 64.5566°
perigee height: 594 km
apogee height: 663 km
right ascension of ascending node: 119.3416°
argument of perigee: 267.1386°
revolutions per day: 14.80165670
mean anomaly at epoch: 161.9657°
orbit number at epoch: 84209

The dashed part of the orbit path shows where the satellite is in the earth's shadow,  

DLR